TimeCDT,TemperatureF,Dew PointF,Humidity,Sea Level PressureIn,VisibilityMPH,Wind Direction,Wind SpeedMPH,Gust SpeedMPH,PrecipitationIn,Events,Conditions,WindDirDegrees,DateUTC
12:55 AM,23.0,14.0,68,30.28,10.0,Calm,Calm,-,N/A,,Clear,0,2013-03-13 05:55:00
1:15 AM,20.3,13.8,76,30.28,10.0,Calm,Calm,-,N/A,,Clear,0,2013-03-13 06:15:00
1:35 AM,19.9,13.8,77,30.28,10.0,Calm,Calm,-,N/A,,Scattered Clouds,0,2013-03-13 06:35:00
1:55 AM,20.1,14.0,77,30.28,10.0,Calm,Calm,-,N/A,,Scattered Clouds,0,2013-03-13 06:55:00
2:35 AM,20.5,14.9,79,30.27,10.0,Calm,Calm,-,N/A,,Clear,0,2013-03-13 07:35:00
2:55 AM,20.7,14.5,77,30.27,10.0,Calm,Calm,-,N/A,,Clear,0,2013-03-13 07:55:00
3:15 AM,21.6,14.7,75,30.26,10.0,Calm,Calm,-,N/A,,Clear,0,2013-03-13 08:15:00
3:55 AM,23.2,16.7,76,30.25,10.0,Calm,Calm,-,N/A,,Scattered Clouds,0,2013-03-13 08:55:00
4:15 AM,24.1,17.8,77,30.24,10.0,Calm,Calm,-,N/A,,Clear,0,2013-03-13 09:15:00
4:35 AM,25.7,18.3,74,30.24,10.0,Calm,Calm,-,N/A,,Clear,0,2013-03-13 09:35:00
4:55 AM,26.4,17.4,69,30.23,10.0,Calm,Calm,-,N/A,,Scattered Clouds,0,2013-03-13 09:55:00
5:15 AM,26.6,19.0,73,30.24,10.0,Calm,Calm,-,N/A,,Mostly Cloudy,0,2013-03-13 10:15:00
5:35 AM,28.8,16.9,61,30.23,10.0,South,9.2,-,N/A,,Mostly Cloudy,190,2013-03-13 10:35:00
5:55 AM,28.8,16.7,61,30.24,10.0,South,6.9,-,N/A,,Scattered Clouds,180,2013-03-13 10:55:00
6:15 AM,29.1,16.7,60,30.24,10.0,South,6.9,-,N/A,,Mostly Cloudy,180,2013-03-13 11:15:00
6:35 AM,29.3,16.3,58,30.24,10.0,SSE,6.9,-,N/A,,Overcast,160,2013-03-13 11:35:00
6:55 AM,29.8,16.7,58,30.23,10.0,SSE,4.6,-,N/A,,Mostly Cloudy,150,2013-03-13 11:55:00
7:15 AM,29.3,16.5,59,30.22,10.0,SSE,6.9,-,N/A,,Mostly Cloudy,150,2013-03-13 12:15:00
7:35 AM,29.7,16.3,58,30.23,10.0,SE,5.8,-,N/A,,Overcast,140,2013-03-13 12:35:00
7:55 AM,29.8,16.7,58,30.22,10.0,SSE,5.8,-,N/A,,Overcast,150,2013-03-13 12:55:00
8:15 AM,30.0,17.4,59,30.22,10.0,SSE,5.8,-,N/A,,Overcast,150,2013-03-13 13:15:00
8:35 AM,30.2,17.4,59,30.22,10.0,SE,3.5,-,N/A,,Overcast,140,2013-03-13 13:35:00
8:55 AM,31.3,16.7,55,30.22,10.0,South,5.8,-,N/A,,Overcast,170,2013-03-13 13:55:00
9:15 AM,32.0,16.0,52,30.22,10.0,South,5.8,-,N/A,,Overcast,180,2013-03-13 14:15:00
9:35 AM,32.9,15.4,49,30.22,10.0,South,9.2,-,N/A,,Overcast,180,2013-03-13 14:35:00
9:55 AM,34.0,15.6,47,30.22,10.0,South,12.7,-,N/A,,Overcast,180,2013-03-13 14:55:00
10:15 AM,34.9,15.8,46,30.23,10.0,South,9.2,-,N/A,,Overcast,180,2013-03-13 15:15:00
10:35 AM,36.5,16.9,45,30.22,10.0,South,10.4,-,N/A,,Overcast,190,2013-03-13 15:35:00
10:55 AM,37.6,17.2,44,30.22,10.0,South,11.5,-,N/A,,Overcast,180,2013-03-13 15:55:00
11:15 AM,40.6,19.0,42,30.21,10.0,South,10.4,-,N/A,,Scattered Clouds,180,2013-03-13 16:15:00
11:35 AM,41.9,19.6,41,30.21,10.0,SSW,11.5,-,N/A,,Clear,200,2013-03-13 16:35:00
11:55 AM,43.3,21.0,41,30.21,10.0,South,9.2,-,N/A,,Clear,190,2013-03-13 16:55:00
12:15 PM,44.8,22.1,41,30.20,10.0,SSW,10.4,-,N/A,,Clear,200,2013-03-13 17:15:00
12:35 PM,45.5,23.0,41,30.19,10.0,SSW,8.1,-,N/A,,Clear,210,2013-03-13 17:35:00
12:55 PM,48.2,24.1,39,30.19,10.0,SSW,8.1,-,N/A,,Clear,200,2013-03-13 17:55:00
1:15 PM,50.2,25.2,38,30.19,10.0,SW,10.4,-,N/A,,Clear,220,2013-03-13 18:15:00
1:35 PM,51.3,25.7,37,30.19,10.0,WSW,9.2,-,N/A,,Clear,240,2013-03-13 18:35:00
1:55 PM,52.7,26.2,36,30.19,10.0,WSW,8.1,-,N/A,,Clear,240,2013-03-13 18:55:00
2:15 PM,54.3,26.8,35,30.18,10.0,WSW,8.1,-,N/A,,Clear,240,2013-03-13 19:15:00
2:35 PM,55.0,27.3,34,30.17,10.0,SW,6.9,-,N/A,,Clear,220,2013-03-13 19:35:00
2:55 PM,55.9,28.0,34,30.15,10.0,SSW,4.6,-,N/A,,Clear,200,2013-03-13 19:55:00
3:15 PM,57.7,28.0,32,30.14,10.0,WSW,5.8,-,N/A,,Clear,240,2013-03-13 20:15:00
3:35 PM,58.5,28.4,32,30.14,10.0,WSW,10.4,-,N/A,,Clear,250,2013-03-13 20:35:00
3:55 PM,59.9,28.6,30,30.13,10.0,WSW,10.4,-,N/A,,Clear,240,2013-03-13 20:55:00
4:15 PM,60.8,28.2,29,30.13,10.0,WSW,9.2,-,N/A,,Clear,240,2013-03-13 21:15:00
4:35 PM,61.3,28.0,28,30.13,10.0,West,6.9,-,N/A,,Clear,260,2013-03-13 21:35:00
4:55 PM,61.9,28.6,28,30.12,10.0,WSW,6.9,-,N/A,,Clear,240,2013-03-13 21:55:00
5:15 PM,61.9,28.8,29,30.11,10.0,WSW,8.1,-,N/A,,Clear,240,2013-03-13 22:15:00
5:35 PM,62.8,28.0,27,30.10,10.0,WSW,5.8,-,N/A,,Clear,240,2013-03-13 22:35:00
5:55 PM,61.9,28.4,28,30.11,10.0,WSW,4.6,-,N/A,,Clear,240,2013-03-13 22:55:00
6:15 PM,62.8,26.4,25,30.11,10.0,West,4.6,-,N/A,,Clear,270,2013-03-13 23:15:00
6:35 PM,63.0,26.2,25,30.10,10.0,SW,3.5,-,N/A,,Clear,230,2013-03-13 23:35:00
6:55 PM,62.2,26.6,26,30.10,10.0,SW,4.6,-,N/A,,Clear,230,2013-03-13 23:55:00
7:15 PM,60.6,27.3,28,30.10,10.0,SSW,3.5,-,N/A,,Clear,210,2013-03-14 00:15:00
7:35 PM,56.1,28.0,34,30.09,10.0,SSW,6.9,-,N/A,,Clear,200,2013-03-14 00:35:00
7:55 PM,53.6,28.4,38,30.09,10.0,South,8.1,-,N/A,,Clear,190,2013-03-14 00:55:00
8:15 PM,52.3,28.8,40,30.09,10.0,South,8.1,-,N/A,,Clear,180,2013-03-14 01:15:00
8:35 PM,51.4,29.5,43,30.09,10.0,South,8.1,-,N/A,,Clear,190,2013-03-14 01:35:00
8:55 PM,51.8,29.7,43,30.08,10.0,South,9.2,-,N/A,,Clear,190,2013-03-14 01:55:00
9:15 PM,51.1,30.0,44,30.07,10.0,South,9.2,-,N/A,,Clear,190,2013-03-14 02:15:00
9:35 PM,49.8,30.0,47,30.07,10.0,South,8.1,-,N/A,,Clear,190,2013-03-14 02:35:00
9:55 PM,49.5,30.0,47,30.07,10.0,SSW,9.2,-,N/A,,Clear,200,2013-03-14 02:55:00
10:15 PM,47.8,30.2,50,30.08,10.0,SSW,10.4,-,N/A,,Clear,200,2013-03-14 03:15:00
10:35 PM,47.1,30.2,52,30.08,10.0,SSW,9.2,-,N/A,,Clear,200,2013-03-14 03:35:00
10:55 PM,45.3,30.4,56,30.08,10.0,SSW,5.8,-,N/A,,Clear,210,2013-03-14 03:55:00
11:15 PM,44.8,30.6,57,30.09,10.0,SSW,6.9,-,N/A,,Clear,210,2013-03-14 04:15:00
11:35 PM,44.8,30.7,58,30.08,10.0,SSW,5.8,-,N/A,,Clear,210,2013-03-14 04:35:00
11:55 PM,43.9,30.6,59,30.08,10.0,SSW,4.6,-,N/A,,Clear,210,2013-03-14 04:55:00